Altus AFB, OK

9:56 AM CDT on June 29, 2017 (GMT -0500)
Altus Air Force Base

Weather History for KLTS - September, 2011

Change the Weather History Date:

Monday, September 5, 2011

  Actual Average Record
Temperature  
Mean Temperature 70 °F -  
Max Temperature 81 °F 89 °F 107 °F (1998)
Min Temperature 58 °F 65 °F 55 °F (2010)
Cooling Degree Days 4    
Growing Degree Days 20 (Base 50)    
Moisture  
Dew Point 38 °F    
Average Humidity 34    
Maximum Humidity 57    
Minimum Humidity 15    
Precipitation  
Precipitation 0.00 in - - ()
Sea Level Pressure  
Sea Level Pressure 30.10 in    
Wind  
Wind Speed 12 mph (NNE)    
Max Wind Speed 17 mph    
Max Gust Speed 29 mph    
Visibility 10 miles    
Events      
Averages and records for this station are not official NWS values.
T = Trace of Precipitation, MM = Missing Value Source: NWS Daily Summary

Daily Weather History Graph

Daily Weather History Graph

Search for Another Location

Airport or City:

Trip Planner

Search our weather history database for the weather conditions in past years. The results will help you decide how hot, cold, wet, or windy it might be!

Date:

Astronomy

Sep. 05, 2011 Rise Set
Actual Time 7:12 AM CDT 7:58 PM CDT
Civil Twilight 6:47 AM CDT 8:23 PM CDT
Nautical Twilight 6:16 AM CDT 8:53 PM CDT
Astronomical Twilight 5:45 AM CDT 9:24 PM CDT
Moon 3:33 PM CDT (9/5) 12:42 AM CDT (9/5)
Length of Visible Light 13h 36m
Length of Day
12h 45m
First Quarter, 61% of the Moon is Illuminated
Sep 5
First Quarter
Sep 12
Full
Sep 20
Last Quarter
Sep 27
New
Oct 3
First Quarter

Hourly Weather History & Observations

Time (CDT) Temp. Dew Point Humidity Pressure Visibility Wind Dir Wind Speed Gust Speed Precip Events Conditions
12:55 AM 68.5 °F 39.6 °F 35% 30.09 in 10.0 mi North 12.7 mph - N/A   Clear
1:55 AM 66.4 °F 39.0 °F 37% 30.10 in 10.0 mi North 11.5 mph - N/A   Clear
2:55 AM 65.8 °F 39.7 °F 38% 30.10 in 10.0 mi North 13.8 mph - N/A   Clear
3:55 AM 64.0 °F 40.8 °F 43% 30.10 in 10.0 mi NNE 13.8 mph - N/A   Clear
4:55 AM 62.2 °F 41.7 °F 47% 30.12 in 10.0 mi North 11.5 mph - N/A   Clear
5:55 AM 60.1 °F 42.6 °F 53% 30.12 in 10.0 mi North 10.4 mph - N/A   Clear
6:55 AM 58.6 °F 43.3 °F 57% 30.14 in 10.0 mi North 9.2 mph - N/A   Clear
7:55 AM 59.7 °F 43.7 °F 55% 30.16 in 10.0 mi North 10.4 mph - N/A   Clear
8:55 AM 64.0 °F 43.9 °F 48% 30.17 in 10.0 mi NNE 9.2 mph - N/A   Clear
9:55 AM 66.7 °F 44.2 °F 44% 30.18 in 10.0 mi NE 13.8 mph - N/A   Clear
10:55 AM 70.5 °F 41.9 °F 35% 30.17 in 10.0 mi NNE 15.0 mph 24.2 mph N/A   Clear
11:55 AM 72.5 °F 41.0 °F 32% 30.16 in 10.0 mi NNE 15.0 mph - N/A   Clear
12:55 PM 75.4 °F 38.1 °F 26% 30.14 in 10.0 mi NNE 12.7 mph 19.6 mph N/A   Clear
1:55 PM 77.4 °F 35.8 °F 22% 30.11 in 10.0 mi NNE 13.8 mph 28.8 mph N/A   Clear
2:55 PM 79.3 °F 34.2 °F 20% 30.08 in 10.0 mi NNE 17.3 mph 20.7 mph N/A   Clear
3:55 PM 81.1 °F 32.7 °F 17% 30.05 in 10.0 mi NE 11.5 mph 19.6 mph N/A   Clear
4:55 PM 81.7 °F 30.6 °F 16% 30.03 in 10.0 mi NNE 10.4 mph - N/A   Clear
5:55 PM 81.3 °F 30.0 °F 15% 30.01 in 10.0 mi NNE 13.8 mph - N/A   Clear
6:55 PM 80.4 °F 32.4 °F 18% 30.02 in 10.0 mi NE 8.1 mph - N/A   Clear
7:55 PM 76.5 °F 32.9 °F 20% 30.02 in 10.0 mi NE 8.1 mph - N/A   Clear
8:55 PM 69.1 °F 33.1 °F 26% 30.04 in 10.0 mi NE 6.9 mph - N/A   Clear
9:55 PM 60.6 °F 32.5 °F 35% 30.07 in 10.0 mi NNE 5.8 mph - N/A   Clear
10:55 PM 60.3 °F 33.4 °F 37% 30.07 in 10.0 mi NNE 8.1 mph - N/A   Clear
11:55 PM 59.5 °F 34.2 °F 39% 30.07 in 10.0 mi NNE 9.2 mph - N/A   Clear